Lid_Strength_Index
7 5 2 2 2 2 1 1 1 1 2 2 2 3 2 2 2 1 1 1 1 1 0 1 2 3 3 3 3 4 4 3
7 7 6 4 2 2 2 2 1 1 2 3 3 3 3 2 2 1 0 0 0 0 1 2 2 3 3 3 3 4 4 4
7 7 8 7 3 2 2 2 2 1 1 2 2 2 2 2 2 1 0 0 0 1 1 2 2 2 3 3 3 3 4 4
8 8 7 7 7 5 2 2 2 1 1 1 2 2 2 2 2 2 1 1 1 1 2 2 3 3 3 3 3 3 3 3
6 7 5 5 6 7 6 3 2 1 1 2 2 3 3 2 2 1 2 1 1 1 2 2 2 2 3 2 2 3 3 3
5 4 4 4 5 4 4 5 2 1 2 2 2 3 2 2 2 2 2 2 1 1 2 2 2 2 2 2 2 3 2 2
5 3 3 5 4 3 4 3 2 2 2 2 2 2 3 3 3 3 3 3 2 2 2 2 1 1 2 2 2 2 1 2
6 5 4 5 5 3 3 3 3 2 2 2 2 2 3 3 3 3 3 2 3 4 4 4 5 5 5 3 3 3 3 2
6 5 4 6 5 5 4 3 3 2 3 3 3 3 3 4 3 3 3 4 5 6 8 9 9 9 8 7 7 6 4 5
5 4 4 5 4 5 5 4 4 4 4 4 4 4 5 5 4 4 4 5 8 10 11 12 11 9 7 6 6 5 5 5
5 5 4 4 4 5 5 5 5 5 5 6 6 6 6 6 6 6 7 9 11 11 10 8 8 8 7 7 7 7 7 7
5 4 4 4 4 6 7 7 7 7 8 8 7 7 7 6 7 8 9 10 10 8 8 9 9 9 8 9 9 8 9 9
9 6 5 4 5 6 6 7 7 7 7 7 8 8 8 9 10 10 10 10 9 9 9 10 10 10 10 10 10 10 10 9
10 8 7 6 4 6 6 7 7 8 8 8 7 9 9 10 10 11 10 10 10 10 10 11 10 10 11 10 11 10 10 10
10 10 8 7 4 6 6 6 6 7 7 8 9 9 10 10 10 10 10 10 11 11 11 12 12 12 11 11 11 11 11 11
10 9 8 7 4 6 6 6 6 7 8 9 10 10 10 11 11 11 11 11 11 12 12 12 13 13 13 13 11 10 10 11
8 8 7 7 4 6 7 7 7 7 9 10 10 10 10 10 10 11 11 11 11 12 12 13 14 14 14 14 13 13 13 13
8 7 6 6 4 6 7 8 8 9 9 10 10 11 11 11 11 11 12 12 12 13 13 13 14 14 14 14 13 13 13 13
7 5 5 4 4 6 7 8 9 9 10 10 11 11 12 12 12 13 13 14 14 14 14 14 14 14 14 14 14 14 14 14